This demonstration page uses our WeatherBlox Daily Observations layout. Learn more.

39.08367, -84.50855

Hourly Observations for July 7, 2019

Temp ( °F °C ) Dew Point ( °F °C ) Humidity (%) Winds ( mph kmh ) Pressure ( in mb ) Visibility ( mi km ) Precip ( " mm )
12:53 am 00:53 Mostly Clear 75 23.9 73 22.8 94 94 Calm 29.91 1013 10 16.09344 0.001 0.001
1:53 am 01:53 Clear 73 22.8 72 22.2 96 96 Calm 29.91 1013 10 16.09344 0 0
2:53 am 02:53 Clear 73 22.8 71 21.7 94 94 Calm 29.91 1013 9 14.484096 0 0
3:53 am 03:53 Clear 72 22.2 71 21.7 97 97 Calm 29.88 1012 8 12.874752 0 0
4:53 am 04:53 Clear with Mist and Fog 72 22.2 71 21.7 97 97 Calm 29.91 1013 5 8.04672 0 0
5:53 am 05:53 Clear with Mist and Fog 71 21.7 71 21.7 100 100 Calm 29.91 1013 5 8.04672 0 0
6:53 am 06:53 Sunny 71 21.7 70 21.1 96 96 Calm 29.91 1013 10 16.09344 0 0
7:53 am 07:53 Sunny 76 24.4 72 22.2 88 88 Calm 29.91 1013 10 16.09344 0 0
8:53 am 08:53 Sunny 77 25 72 22.2 85 85 Calm 29.91 1013 10 16.09344 0 0
9:53 am 09:53 Sunny 80 26.7 72 22.2 76 76 Calm 29.94 1014 10 16.09344 0 0
10:53 am 10:53 Mostly Sunny 83 28.3 73 22.8 72 72 Calm 29.94 1014 10 16.09344 0 0
11:53 am 11:53 Mostly Cloudy 85 29.4 73 22.8 68 68 Calm 29.91 1013 10 16.09344 0 0
12:53 pm 12:53 Partly Cloudy 87 30.6 74 23.3 65 65 E 7 11 29.91 1013 10 16.09344 0 0
1:53 pm 13:53 Mostly Cloudy 86 30 72 22.2 63 63 Calm 29.91 1013 10 16.09344 0 0
2:53 pm 14:53 Mostly Cloudy 89 31.7 73 22.8 59 59 Calm 29.88 1012 10 16.09344 0 0
3:53 pm 15:53 Partly Cloudy 90 32.2 71 21.7 54 54 WNW 12 19 29.88 1012 10 16.09344 0 0
4:53 pm 16:53 Partly Cloudy 90 32.2 70 21.1 52 52 NW 8 13 29.85 1011 10 16.09344 0 0
5:53 pm 17:53 Mostly Cloudy 86 30 72 22.2 63 63 N 8 13 29.85 1011 10 16.09344 0 0
6:53 pm 18:53 Partly Cloudy 86 30 73 22.8 65 65 NNE 10 17 29.85 1011 10 16.09344 0 0
7:53 pm 19:53 Mostly Sunny 84 28.9 71 21.7 65 65 NNE 12 19 29.85 1011 10 16.09344 0 0
8:53 pm 20:53 Sunny 81 27.2 69 20.6 67 67 N 9 15 29.88 1012 10 16.09344 0 0
9:53 pm 21:53 Clear 78 25.6 69 20.6 74 74 NNE 6 9 29.88 1012 10 16.09344 0 0
10:53 pm 22:53 Clear 77 25 68 20 74 74 N 8 13 29.91 1013 10 16.09344 0 0
11:53 pm 23:53 Clear 75 23.9 69 20.6 82 82 NE 9 15 29.94 1014 10 16.09344 0 0

Powered by AerisWeather